Tracking 26321 objects as of 27-Nov-2022
HD Live streaming from Space Station
objects crossing your sky now

STARLINK-3994

Track STARLINK-3994 now!
10-day predictions
STARLINK-3994 is classified as:


NORAD ID: 52633
Int'l Code: 2022-052AM
Perigee: 545.3 km
Apogee: 548.4 km
Inclination: 53.2 °
Period: 95.4 minutes
Semi major axis: 6917 km
RCS: Unknown
Launch date: May 14, 2022
Source: United States (US)
Launch site: AIR FORCE EASTERN TEST RANGE (AFETR)
aabbcc
Your satellite tracking list
Your tracking list is empty




NASA's NSSDC Master Catalog

Two Line Element Set (TLE):
1 52633U 22052AM  22330.81813227  .00002243  00000-0  15896-3 0  9995
2 52633  53.2187 251.0637 0002222  38.0221 322.0928 15.08842848 30013
Source of the keplerian elements: AFSPC